Satellite: POLLUX
Catalog number: 35693
Epoch time:      09253.37891481
Element set:      41
Inclination:      051.6396 deg
RA of node:       227.2380 deg
Eccentricity:    0.0003534
Arg of perigee:   144.2393 deg
Mean anomaly:     215.8863 deg
Mean motion:   15.81465030 rev/day
Decay rate:     1.7017e-04 rev/day^2
Epoch rev:             659
Checksum:              295

Satellite: CASTOR
Catalog number: 35694
Epoch time:      09253.83329502
Element set:      40
Inclination:      051.6404 deg
RA of node:       225.0289 deg
Eccentricity:    0.0003862
Arg of perigee:   158.6084 deg
Mean anomaly:     201.5076 deg
Mean motion:   15.80695457 rev/day
Decay rate:      8.665e-05 rev/day^2
Epoch rev:             666
Checksum:              303

/EX



_______________________________________________
Via the Keps mailing list courtesy of AMSAT-NA
http://amsat.org/mailman/listinfo/keps

--- ViaMAIL!/WC v1.60d
 * Origin: Chowdanet (401-724-4410) telnet://chowdanet.com  (1:323/120)